Location: Amon Carter Post Office
(32.8281°N, 97.0484°W)
Time: 05:03:17
(UTC+00:00)

CZ-2C R/B - Pass Details

Date: 02 July 2022
Orbit: 783 x 871 km, 98.2° (Epoch: 11 August)

Event Time Altitude Azimuth Distance (km) Brightness Sun altitude
Rises 10:19:16 0° 145° (SE) 3,392 5.8 -12.2°
Reaches altitude 10° 10:21:46 10° 137° (SE) 2,472 5.2 -11.8°
Maximum altitude 10:26:46 37° 71° (ENE) 1,310 4.4 -11.0°
Drops below altitude 10° 10:31:52 10° 6° (N) 2,517 5.8 -10.1°
Sets 10:34:25 0° 358° (N) 3,462 6.4 -9.7°
